Weather History for Swainsboro, GA

Change the Weather History Date:

Tuesday, November 20, 2012

  Actual Average Record
Temperature  
Mean Temperature 55 °F -  
Max Temperature 68 °F 68 °F 55 °F (2013)
Min Temperature 42 °F 46 °F 44 °F (2013)
Degree Days  
Heating Degree Days 10    
Growing Degree Days 5 (Base 50)    
Moisture  
Dew Point 49 °F    
Average Humidity 83    
Maximum Humidity 100    
Minimum Humidity 52    
Precipitation  
Precipitation 0.00 in - - ()
Sea Level Pressure  
Sea Level Pressure 30.12 in    
Wind  
Wind Speed 3 mph ()    
Max Wind Speed 8 mph    
Max Gust Speed -    
Visibility 9.9 miles    
Events      
Averages and records for this station are not official NWS values.
T = Trace of Precipitation, MM = Missing Value Source: Averaged Metar Reports

Daily Weather History Graph

Daily Weather History Graph

Search for Another Location

Airport:

Trip Planner

Search our weather history database for the weather conditions in past years. The results will help you decide how hot, cold, wet, or windy it might be!

Date:

Astronomy

Nov. 20, 2012 Rise Set
Actual Time 7:04 AM EST 5:25 PM EST
Civil Twilight 6:37 AM EST 5:52 PM EST
Nautical Twilight 6:07 AM EST 6:22 PM EST
Astronomical Twilight 5:38 AM EST 6:51 PM EST
Moon 12:49 PM EST (11/20) No Moon Set
Length of Visible Light 11h 14m
Length of Day
10h 21m
Waxing Crescent, 51% of the Moon is Illuminated
Nov 20
Waxing Crescent
Nov 28
Full
Dec 6
Last Quarter
Dec 13
New
Dec 20
First Quarter

Hourly Weather History & Observations

Time (EST) Temp. Windchill Dew Point Humidity Pressure Visibility Wind Dir Wind Speed Gust Speed Precip Events Conditions
12:15 AM 53.6 °F - 50.0 °F 88% 30.17 in 10.0 mi NNE 3.5 mph - N/A   Clear
12:35 AM 53.6 °F - 50.0 °F 88% 30.16 in 10.0 mi NNE 3.5 mph - N/A   Clear
12:55 AM 53.6 °F - 50.0 °F 88% 30.16 in 10.0 mi NNE 3.5 mph - N/A   Clear
1:15 AM 51.8 °F - 50.0 °F 94% 30.16 in 10.0 mi NNW 3.5 mph - N/A   Clear
1:35 AM 50.0 °F - 50.0 °F 100% 30.16 in 10.0 mi NNW 3.5 mph - N/A   Clear
1:55 AM 50.0 °F - 50.0 °F 100% 30.16 in 10.0 mi NNW 3.5 mph - N/A   Clear
2:15 AM 48.2 °F - 48.2 °F 100% 30.15 in 10.0 mi Calm Calm - N/A   Clear
2:35 AM 50.0 °F - 50.0 °F 100% 30.14 in 10.0 mi NNE 3.5 mph - N/A   Clear
2:55 AM 50.0 °F - 50.0 °F 100% 30.13 in 10.0 mi Calm Calm - N/A   Clear
3:15 AM 50.0 °F - 50.0 °F 100% 30.14 in 10.0 mi North 4.6 mph - N/A   Clear
3:35 AM 50.0 °F - 50.0 °F 100% 30.14 in 10.0 mi NNE 4.6 mph - N/A   Clear
7:15 AM 42.8 °F - 42.8 °F 100% 30.17 in 7.0 mi Calm Calm - N/A   Clear
7:35 AM 42.8 °F 41.1 °F 42.8 °F 100% 30.18 in 7.0 mi WNW 3.5 mph - N/A   Clear
7:55 AM 44.6 °F - 44.6 °F 100% 30.18 in 7.0 mi Calm Calm - N/A   Clear
8:15 AM 50.0 °F - 48.2 °F 94% 30.18 in 10.0 mi NE 4.6 mph - N/A   Clear
8:35 AM 50.0 °F - 46.4 °F 87% 30.18 in 10.0 mi NE 4.6 mph - N/A   Clear
8:55 AM 50.0 °F - 46.4 °F 87% 30.19 in 10.0 mi NNE 4.6 mph - N/A   Clear
9:15 AM 51.8 °F - 48.2 °F 88% 30.19 in 10.0 mi ENE 5.8 mph - N/A   Clear
9:35 AM 51.8 °F - 48.2 °F 88% 30.19 in 10.0 mi ENE 4.6 mph - N/A   Clear
9:55 AM 53.6 °F - 46.4 °F 77% 30.19 in 10.0 mi East 5.8 mph - N/A   Clear
10:15 AM 57.2 °F - 48.2 °F 72% 30.18 in 10.0 mi East 5.8 mph - N/A   Clear
10:35 AM 59.0 °F - 48.2 °F 67% 30.18 in 10.0 mi Calm Calm - N/A   Clear
10:55 AM 60.8 °F - 48.2 °F 63% 30.18 in 10.0 mi NE 4.6 mph - N/A   Mostly Cloudy
11:15 AM 62.6 °F - 48.2 °F 59% 30.17 in 10.0 mi Calm Calm - N/A   Overcast
11:35 AM 62.6 °F - 48.2 °F 59% 30.16 in 10.0 mi NNE 6.9 mph - N/A   Overcast
11:55 AM 62.6 °F - 50.0 °F 63% 30.15 in 10.0 mi NNW 5.8 mph - N/A   Overcast
12:15 PM 62.6 °F - 50.0 °F 63% 30.14 in 10.0 mi NNW 5.8 mph - N/A   Overcast
12:35 PM 62.6 °F - 50.0 °F 63% 30.13 in 10.0 mi NNW 3.5 mph - N/A   Overcast
12:55 PM 62.6 °F - 50.0 °F 63% 30.12 in 10.0 mi NNW 6.9 mph - N/A   Mostly Cloudy
1:15 PM 62.6 °F - 50.0 °F 63% 30.11 in 10.0 mi North 4.6 mph - N/A   Scattered Clouds
1:35 PM 64.4 °F - 50.0 °F 59% 30.09 in 10.0 mi NW 3.5 mph - N/A   Clear
1:55 PM 66.2 °F - 51.8 °F 60% 30.08 in 10.0 mi NW 6.9 mph - N/A   Clear
2:15 PM 66.2 °F - 51.8 °F 60% 30.08 in 10.0 mi NNW 6.9 mph - N/A   Clear
2:35 PM 66.2 °F - 50.0 °F 56% 30.07 in 10.0 mi North 4.6 mph - N/A   Clear
2:55 PM 68.0 °F - 50.0 °F 52% 30.07 in 10.0 mi NW 8.1 mph - N/A   Clear
3:15 PM 66.2 °F - 50.0 °F 56% 30.06 in 10.0 mi North 5.8 mph - N/A   Clear
3:35 PM 68.0 °F - 51.8 °F 56% 30.06 in 10.0 mi NNE 3.5 mph - N/A   Scattered Clouds
3:55 PM 68.0 °F - 50.0 °F 52% 30.06 in 10.0 mi Calm Calm - N/A   Scattered Clouds
4:15 PM 64.4 °F - 50.0 °F 59% 30.06 in 10.0 mi North 4.6 mph - N/A   Scattered Clouds
4:35 PM 64.4 °F - 51.8 °F 64% 30.06 in 10.0 mi Calm Calm - N/A   Clear
4:55 PM 62.6 °F - 51.8 °F 68% 30.06 in 10.0 mi Calm Calm - N/A   Clear
5:15 PM 60.8 °F - 53.6 °F 77% 30.06 in 10.0 mi Calm Calm - N/A   Clear
5:35 PM 59.0 °F - 53.6 °F 82% 30.06 in 10.0 mi Calm Calm - N/A   Clear
5:55 PM 57.2 °F - 53.6 °F 88% 30.07 in 10.0 mi Calm Calm - N/A   Clear
6:15 PM 55.4 °F - 53.6 °F 94% 30.08 in 10.0 mi Calm Calm - N/A   Clear
6:35 PM 55.4 °F - 53.6 °F 94% 30.08 in 10.0 mi Calm Calm - N/A   Clear
6:55 PM 53.6 °F - 51.8 °F 94% 30.08 in 10.0 mi Calm Calm - N/A   Clear
7:15 PM 51.8 °F - 51.8 °F 100% 30.09 in 10.0 mi NE 3.5 mph - N/A   Clear
7:35 PM 53.6 °F - 50.0 °F 88% 30.09 in 10.0 mi NE 3.5 mph - N/A   Clear
7:55 PM 51.8 °F - 50.0 °F 94% 30.09 in 10.0 mi NE 3.5 mph - N/A   Clear
8:15 PM 50.0 °F - 50.0 °F 100% 30.09 in 10.0 mi NE 3.5 mph - N/A   Clear
8:35 PM 50.0 °F - 50.0 °F 100% 30.09 in 10.0 mi NE 3.5 mph - N/A   Clear
8:55 PM 50.0 °F - 50.0 °F 100% 30.09 in 10.0 mi Calm Calm - N/A   Clear
9:15 PM 46.4 °F - 46.4 °F 100% 30.10 in 10.0 mi Calm Calm - N/A   Clear
9:35 PM 46.4 °F - 46.4 °F 100% 30.10 in 10.0 mi Calm Calm - N/A   Clear
9:55 PM 46.4 °F - 46.4 °F 100% 30.10 in 10.0 mi Calm Calm - N/A   Clear
10:15 PM 44.6 °F - 44.6 °F 100% 30.09 in 10.0 mi Calm Calm - N/A   Clear
10:35 PM 44.6 °F - 44.6 °F 100% 30.10 in 10.0 mi Calm Calm - N/A   Clear
10:55 PM 42.8 °F - 42.8 °F 100% 30.10 in 10.0 mi Calm Calm - N/A   Clear
11:15 PM 42.8 °F - 42.8 °F 100% 30.10 in 10.0 mi Calm Calm - N/A   Clear
11:35 PM 42.8 °F - 42.8 °F 100% 30.10 in 10.0 mi Calm Calm - N/A   Clear
11:55 PM 42.8 °F - 42.8 °F 100% 30.10 in 10.0 mi Calm Calm - N/A   Clear